Simultaneous Nadir Overpasses (SNOs) Predictions

Prediction of SNOs between AQUA and METOP-B Satellite Orbit:

Table of predicted SNOs for the next 14.0 days since TLE Epoch: 8/9/2014
Index Date (AQUA) Time (AQUA) Lat,Lon (AQUA) SZA (AQUA ) Date (METOP-B) Time (METOP-B) Lat,Lon (METOP-B) SZA (METOP-B ) Distance(km) Time Diff (sec)
1 08/10/2014 12:31:56 73.76, -13.55 58.31 08/10/2014 12:31:05 73.77, -13.55 58.33 1.22 51
2 08/10/2014 13:21:23 -73.84, 153.91 121.60 08/10/2014 13:21:46 -73.83, 153.94 121.61 0.94 23
3 08/13/2014 08:06:11 73.79, 52.82 59.18 08/13/2014 08:05:27 73.76, 52.84 59.15 3.54 44
4 08/13/2014 08:55:37 -73.82,-139.60 120.79 08/13/2014 08:56:08 -73.83,-139.67 120.77 2.58 31
5 08/16/2014 03:40:24 73.80, 119.24 60.06 08/16/2014 03:39:47 73.79, 119.32 60.05 2.77 37
6 08/16/2014 04:29:51 -73.88, -73.29 119.86 08/16/2014 04:30:28 -73.87, -73.17 119.87 3.62 37
7 08/18/2014 23:14:37 73.79,-174.29 60.94 08/18/2014 23:14:09 73.77,-174.32 60.93 1.71 28
8 08/19/2014 00:04:04 -73.86, -6.81 118.98 08/19/2014 00:04:50 -73.85, -6.81 118.99 0.75 46
9 08/21/2014 17:59:11 -73.19, 85.77 118.79 08/21/2014 17:58:04 -73.15, 83.34 118.73 78.34 67
10 08/21/2014 18:48:50 73.80,-107.88 61.88 08/21/2014 18:48:30 73.80,-107.86 61.88 0.75 20
11 08/21/2014 19:38:17 -73.87, 59.61 118.04 08/21/2014 19:39:11 -73.88, 59.66 118.04 1.64 54




NCC Satellite Simultaneous Nadir Overpasses (SNOs) Prediction Service
